Regional Weather Roundup
Issued by NWS Newport/Morehead, NC

Home | Current Version | Previous Version | Text Only | Print | Product List | Glossary On
Versions: 1 2 3 4 5 6 7 8 9 10 11 12 13 14 15 16 17 18 19 20 21 22 23 24 25 26 27 28 29 30 31 32 33 34 35 36 37 38 39 40 41 42 43 44 45 46 47 48 49 50
000
ASUS42 KMHX 242110
RWRMHX
WEATHER ROUNDUP FOR EASTERN NORTH CAROLINA
NATIONAL WEATHER SERVICE NEWPORT/MOREHEAD CITY NC
500 PM EDT THU JUL 24 2014

NOTE: "FAIR" INDICATES FEW OR NO CLOUDS BELOW 12,000 FEET
WITH NO SIGNIFICANT WEATHER AND/OR OBSTRUCTIONS TO VISIBILITY

NCZ015>017-031-032-045>047-102-103-242200-
NORTH COAST

CITY           SKY/WX    TMP DP  RH WIND       PRES   REMARKS
EDENTON        CLOUDY    77  71  82 E3        29.87F
ELIZABETH CITY PTSUNNY   80  70  71 CALM      29.86F
KITTY HAWK     MOCLDY    77  71  79 CALM      29.85F
MANTEO         NOT AVBL

$$

NCZ045>047-081-094-103-104-242200-
CENTRAL COAST

CITY           SKY/WX    TMP DP  RH WIND       PRES   REMARKS
FRISCO         LGT RAIN  76  74  93 SW12      29.89R
SWANQUARTER      N/A     75 N/A N/A E1        29.82F

$$

NCZ095-097-098-100-101-242200-
SOUTHERN COAST

CITY           SKY/WX    TMP DP  RH WIND       PRES   REMARKS
BEAUFORT       HVY RAIN  73  71  93 SE6       29.90F VSB 3/4
CEDAR ISLAND     N/A     73 N/A N/A S3        29.91S
JACKSONVILLE   CLOUDY    76  73  91 N8        29.85F THUNDER
NEWPORT        NOT AVBL
PINEY ISLAND   LGT RAIN  73 N/A N/A S8        29.87S
WILMINGTON     SUNNY     91  75  59 SW15G25   29.83F HX 101


$$

NCZ011>013-027>030-043-044-078>080-089-090>093-098-242200-
COASTAL PLAIN

CITY           SKY/WX    TMP DP  RH WIND       PRES   REMARKS
AHOSKIE        MOSUNNY   83  69  63 E3        29.86S
CLINTON        PTSUNNY   83  75  77 CALM      29.84R
ELIZABETHTOWN  MOSUNNY   89  71  54 NW18G25   29.86R
GOLDSBORO      PTSUNNY   75  75  99 E3        29.84F
GREENVILLE     CLOUDY    77  73  88 CALM      29.89F
HAVELOCK       NOT AVBL
KENANSVILLE    MOSUNNY   80  71  72 NE3       29.85F
KINSTON        CLOUDY    79  75  89 N3        29.87F
NEW BERN       CLOUDY    77  73  88 CALM      29.88R
RICHLANDS      PTSUNNY   75  72  88 E7        29.86F THUNDER
ROANOKE RAPIDS NOT AVBL
ROCKY MOUNT    MOSUNNY   83  73  72 VRB5      29.85F
WASHINGTON     CLOUDY    76  73  91 SE3       29.87F
WHITEVILLE     LGT RAIN  88  73  61 NW7       29.85S

$$

AMZ130-135-150-152-154-156-158-170-250-252-270-ANZ085-086-088-633-658-670-242200-
MARINE OBSERVATIONS

STATION/POSITION TIME  TEMP    WIND        PRES    WAVE   SWELL
                       AIR SEA DIR/SP/G            HT/PER HT/PER
                 (UTC) (F)     (DEG/KT/KT) (MB)    (FT/S) (FT/S)
CHESAPEAKE LIGHT NOT AVBL
BUOY 44014       2100   77 78  360/  2/  2 1010.6    3/ 7   3/ 7
DUCK             2100   79 72  110/  2/  3 1010.7
2E DUCK          2100                        N/A     2/10
OREGON INLET     2100   76 82  350/  3/  4 1011.6
BUOY 44095       2100      78                N/A     3/ 8
20E OREGON INLET 2000          230/ 12/ 14   N/A
HATTERAS CG      2100   76 82  220/  7/ 10 1012.0
DIAMOND BUOY     2100          VRB 19/ 23  1011.3    4/ 7   2/ 7
CAPE LOOKOUT     2000   76      50/  7/  9 1012.0
BEAUFORT LAB     2100   72 82  350/  3/ 10 1012.4
30 SE NEW RIVER  2100   82 81  220/ 19/ 23 1011.0    4/ 5   2/11
5 SE WRIGHTSVILL 2000   80 82  210/ 17/ 21   N/A
BUOY 41002       2031   82 82  240/ 17/ 21 1015.9    5/ 6   2/11
BUOY 41004       2100   82 83  220/ 17/ 21 1012.1    4/ 5   2/ 7

$$


USA.gov is the U.S. government's official web portal to all federal, state and local government web resources and services.